�������l�o���
Date,Time,MP-1(��Sv/h),MP-2(��Sv/h),MP-3(��Sv/h),MP-4(��Sv/h),MP-5(��Sv/h),MP-6(��Sv/h),MP-7(��Sv/h),MP-8(��Sv/h),����,����(m/s),���J
2019/08/05,00:00,0.760,1.094,0.742,1.312,0.966,0.431,0.746,0.706,��,6.2,��
2019/08/05,00:10,0.760,1.090,0.744,1.313,0.968,0.431,0.745,0.705,��,5.9,��
2019/08/05,00:20,0.758,1.090,0.743,1.311,0.967,0.432,0.745,0.703,��,5.4,��
2019/08/05,00:30,0.758,1.088,0.743,1.313,0.967,0.432,0.743,0.704,��쐼,5.3,��
2019/08/05,00:40,0.759,1.088,0.744,1.315,0.967,0.432,0.746,0.703,��,6.3,��
2019/08/05,00:50,0.758,1.090,0.744,1.311,0.967,0.432,0.746,0.704,��,6.5,��
2019/08/05,01:00,0.757,1.087,0.743,1.312,0.965,0.432,0.746,0.704,��,6.2,��
2019/08/05,01:10,0.759,1.091,0.742,1.313,0.965,0.431,0.745,0.704,��,6.7,��
2019/08/05,01:20,0.758,1.091,0.746,1.311,0.964,0.432,0.746,0.705,��,6.3,��
2019/08/05,01:30,0.758,1.091,0.745,1.314,0.965,0.430,0.746,0.706,��,6.1,��
2019/08/05,01:40,0.758,1.088,0.745,1.311,0.965,0.430,0.744,0.704,��,4.6,��
2019/08/05,01:50,0.758,1.089,0.743,1.312,0.966,0.432,0.744,0.703,��,6.1,��
2019/08/05,02:00,0.758,1.089,0.743,1.312,0.965,0.431,0.744,0.706,��쐼,5.9,��
2019/08/05,02:10,0.760,1.088,0.744,1.313,0.966,0.431,0.745,0.703,��,6.2,��
2019/08/05,02:20,0.758,1.088,0.744,1.312,0.966,0.432,0.745,0.704,��,4.9,��
2019/08/05,02:30,0.757,1.088,0.744,1.311,0.965,0.431,0.745,0.704,��,5.6,��
2019/08/05,02:40,0.758,1.089,0.742,1.315,0.966,0.431,0.744,0.705,��쐼,4.9,��
2019/08/05,02:50,0.757,1.088,0.744,1.313,0.965,0.430,0.746,0.705,��쐼,3.4,��
2019/08/05,03:00,0.757,1.089,0.744,1.315,0.966,0.432,0.744,0.704,��,2.9,��
2019/08/05,03:10,0.757,1.089,0.743,1.311,0.966,0.431,0.746,0.705,��쐼,3.5,��
2019/08/05,03:20,0.758,1.089,0.745,1.315,0.966,0.432,0.746,0.706,��,4.1,��
2019/08/05,03:30,0.760,1.088,0.745,1.313,0.967,0.431,0.745,0.703,��,4.8,��
2019/08/05,03:40,0.756,1.086,0.745,1.312,0.965,0.431,0.744,0.705,��,5.7,��
2019/08/05,03:50,0.758,1.086,0.742,1.314,0.968,0.431,0.746,0.705,��,5.0,��
2019/08/05,04:00,0.759,1.088,0.743,1.312,0.963,0.432,0.745,0.704,��,6.1,��
2019/08/05,04:10,0.758,1.088,0.743,1.310,0.966,0.433,0.744,0.704,��,5.3,��
2019/08/05,04:20,0.760,1.090,0.744,1.311,0.968,0.432,0.745,0.704,��,5.6,��
2019/08/05,04:30,0.759,1.087,0.742,1.310,0.964,0.430,0.746,0.705,��,5.7,��
2019/08/05,04:40,0.759,1.089,0.743,1.311,0.962,0.430,0.745,0.705,��,5.3,��
2019/08/05,04:50,0.759,1.089,0.744,1.311,0.964,0.431,0.744,0.705,��,5.7,��
2019/08/05,05:00,0.758,1.090,0.743,1.313,0.966,0.431,0.746,0.704,��,6.4,��
2019/08/05,05:10,0.759,1.089,0.745,1.311,0.966,0.430,0.745,0.705,��,6.7,��
2019/08/05,05:20,0.757,1.090,0.744,1.310,0.966,0.431,0.745,0.706,��,6.6,��
2019/08/05,05:30,0.759,1.089,0.743,1.313,0.966,0.431,0.745,0.705,��,6.5,��
2019/08/05,05:40,0.758,1.089,0.745,1.311,0.964,0.432,0.745,0.704,��,6.4,��
2019/08/05,05:50,0.759,1.090,0.744,1.311,0.966,0.432,0.747,0.706,��,6.5,��
2019/08/05,06:00,0.757,1.088,0.745,1.313,0.963,0.432,0.745,0.706,��,6.5,��
2019/08/05,06:10,0.758,1.089,0.744,1.313,0.965,0.432,0.746,0.705,��,5.9,��
2019/08/05,06:20,0.760,1.089,0.742,1.312,0.963,0.433,0.745,0.704,��쐼,4.9,��
2019/08/05,06:30,0.760,1.091,0.743,1.310,0.965,0.433,0.745,0.707,��쐼,2.5,��
2019/08/05,06:40,0.760,1.088,0.743,1.312,0.966,0.432,0.746,0.705,��쓌,0.9,��
2019/08/05,06:50,0.760,1.089,0.743,1.313,0.966,0.431,0.746,0.704,��,1.4,��
2019/08/05,07:00,0.762,1.088,0.742,1.311,0.967,0.434,0.747,0.705,��,2.3,��
2019/08/05,07:10,0.761,1.086,0.741,1.311,0.966,0.433,0.747,0.707,��,2.6,��
2019/08/05,07:20,0.760,1.087,0.740,1.311,0.963,0.433,0.746,0.705,��,2.5,��
2019/08/05,07:30,0.761,1.087,0.742,1.309,0.967,0.432,0.745,0.705,��,1.7,��
2019/08/05,07:40,0.761,1.087,0.743,1.313,0.966,0.431,0.747,0.705,��,3.0,��
2019/08/05,07:50,0.760,1.089,0.742,1.310,0.964,0.433,0.746,0.706,��,4.1,��
2019/08/05,08:00,0.761,1.086,0.743,1.313,0.964,0.432,0.747,0.705,��쓌,5.1,��
2019/08/05,08:10,0.761,1.085,0.742,1.314,0.965,0.432,0.746,0.706,��,5.5,��
2019/08/05,08:20,0.762,1.083,0.741,1.310,0.962,0.432,0.748,0.704,��,6.0,��
2019/08/05,08:30,0.760,1.086,0.742,1.312,0.965,0.433,0.747,0.702,��,5.7,��
2019/08/05,08:40,0.761,1.085,0.741,1.312,0.963,0.432,0.747,0.703,��쓌,6.9,��
2019/08/05,08:50,0.763,1.087,0.742,1.311,0.963,0.432,0.748,0.703,��,7.1,��
2019/08/05,09:00,0.760,1.087,0.743,1.311,0.965,0.432,0.747,0.704,��,7.7,��
2019/08/05,09:10,0.761,1.087,0.739,1.312,0.967,0.435,0.750,0.704,��,7.4,��
2019/08/05,09:20,0.760,1.088,0.742,1.314,0.967,0.431,0.746,0.702,��,6.4,��
2019/08/05,09:30,0.760,1.086,0.741,1.313,0.967,0.432,0.748,0.704,��,7.3,��
2019/08/05,09:40,0.759,1.084,0.736,1.314,0.967,0.431,0.748,0.704,��쓌,8.1,��
2019/08/05,09:50,0.760,1.084,0.741,1.313,0.968,0.433,0.749,0.704,��,9.1,��
2019/08/05,10:00,0.760,1.085,0.743,1.317,0.967,0.431,0.746,0.704,��,8.6,��
2019/08/05,10:10,0.759,1.086,0.741,1.313,0.968,0.431,0.746,0.704,��,9.3,��
2019/08/05,10:20,0.760,1.084,0.743,1.314,0.968,0.431,0.746,0.703,��,8.6,��
2019/08/05,10:30,0.761,1.089,0.740,1.315,0.969,0.429,0.747,0.703,��,8.6,��
2019/08/05,10:40,0.761,1.089,0.741,1.314,0.969,0.430,0.746,0.704,��쓌,9.0,��
2019/08/05,10:50,0.761,1.090,0.742,1.315,0.971,0.431,0.746,0.704,��,9.1,��
2019/08/05,11:00,0.762,1.091,0.743,1.317,0.968,0.430,0.747,0.702,��쓌,12.0,��
2019/08/05,11:10,0.761,1.090,0.743,1.310,0.970,0.430,0.746,0.705,��쓌,11.6,��
2019/08/05,11:20,0.761,1.092,0.743,1.312,0.973,0.430,0.748,0.704,��쓌,10.6,��
2019/08/05,11:30,0.760,1.089,0.742,1.312,0.971,0.430,0.746,0.705,��쓌,10.9,��
2019/08/05,11:40,0.759,1.086,0.743,1.312,0.970,0.429,0.747,0.704,��쓌,11.0,��
2019/08/05,11:50,0.763,1.089,0.743,1.315,0.971,0.430,0.747,0.705,��쓌,11.9,��
2019/08/05,12:00,0.764,1.093,0.744,1.316,0.972,0.431,0.750,0.704,��쓌,11.6,��
2019/08/05,12:10,0.762,1.092,0.745,1.313,0.972,0.432,0.745,0.704,��쓌,11.1,��
2019/08/05,12:20,0.762,1.090,0.745,1.315,0.975,0.429,0.749,0.706,��쓌,13.3,��
2019/08/05,12:30,0.762,1.095,0.746,1.317,0.974,0.429,0.748,0.705,��쓌,12.7,��
2019/08/05,12:40,0.763,1.090,0.745,1.317,0.973,0.430,0.748,0.704,��쓌,14.1,��
2019/08/05,12:50,0.762,1.091,0.744,1.315,0.973,0.429,0.749,0.707,��,12.7,��
2019/08/05,13:00,0.761,1.094,0.745,1.316,0.976,0.430,0.748,0.705,��쓌,10.3,��
2019/08/05,13:10,0.763,1.089,0.745,1.316,0.974,0.431,0.747,0.705,��쓌,11.8,��
2019/08/05,13:20,0.764,1.089,0.746,1.316,0.976,0.431,0.747,0.706,��쓌,14.2,��
2019/08/05,13:30,0.762,1.088,0.745,1.316,0.978,0.430,0.749,0.705,��쓌,12.4,��
2019/08/05,13:40,0.761,1.089,0.745,1.316,0.976,0.430,0.749,0.705,��쓌,12.7,��
2019/08/05,13:50,0.763,1.087,0.745,1.317,0.976,0.431,0.748,0.705,��쓌,13.6,��
2019/08/05,14:00,0.765,1.087,0.746,1.316,0.976,0.432,0.749,0.707,��쓌,13.3,��
2019/08/05,14:10,0.763,1.092,0.742,1.317,0.977,0.432,0.751,0.706,��쓌,12.8,��
2019/08/05,14:20,0.763,1.094,0.744,1.319,0.977,0.431,0.753,0.706,��쓌,12.4,��
2019/08/05,14:30,0.763,1.088,0.744,1.317,0.977,0.431,0.753,0.706,��쓌,13.1,��
2019/08/05,14:40,0.765,1.091,0.744,1.317,0.977,0.431,0.750,0.707,��,13.0,��
2019/08/05,14:50,0.765,1.092,0.747,1.317,0.976,0.431,0.751,0.707,��쓌,12.4,��
2019/08/05,15:00,0.765,1.092,0.746,1.316,0.979,0.431,0.752,0.707,��쓌,12.4,��
2019/08/05,15:10,0.765,1.091,0.746,1.317,0.976,0.431,0.751,0.708,��쓌,13.0,��
2019/08/05,15:20,0.763,1.090,0.746,1.317,0.977,0.431,0.752,0.706,��,12.4,��
2019/08/05,15:30,0.766,1.092,0.745,1.320,0.976,0.430,0.752,0.705,��,11.8,��
2019/08/05,15:40,0.765,1.092,0.746,1.318,0.977,0.431,0.749,0.705,��,11.8,��
2019/08/05,15:50,0.764,1.094,0.747,1.320,0.976,0.430,0.751,0.705,��쓌,13.1,��
2019/08/05,16:00,0.764,1.093,0.747,1.322,0.979,0.431,0.750,0.706,��,13.0,��
2019/08/05,16:10,0.764,1.094,0.748,1.319,0.979,0.430,0.751,0.705,��쓌,13.0,��
2019/08/05,16:20,0.764,1.099,0.747,1.322,0.979,0.431,0.750,0.703,��쓌,14.1,��
2019/08/05,16:30,0.763,1.096,0.746,1.322,0.978,0.432,0.748,0.705,��,13.5,��
2019/08/05,16:40,0.763,1.094,0.746,1.323,0.977,0.431,0.749,0.706,��쓌,12.8,��
2019/08/05,16:50,0.763,1.097,0.746,1.320,0.978,0.430,0.749,0.705,��,13.3,��
2019/08/05,17:00,0.764,1.095,0.747,1.321,0.980,0.431,0.749,0.705,��쓌,13.5,��
2019/08/05,17:10,0.763,1.095,0.747,1.322,0.978,0.432,0.749,0.705,��쓌,13.0,��
2019/08/05,17:20,0.764,1.095,0.748,1.320,0.978,0.431,0.749,0.705,��쓌,12.2,��
2019/08/05,17:30,0.764,1.095,0.748,1.321,0.979,0.430,0.749,0.706,��,12.4,��
2019/08/05,17:40,0.763,1.094,0.748,1.321,0.980,0.432,0.750,0.706,��,11.7,��
2019/08/05,17:50,0.763,1.094,0.748,1.320,0.976,0.433,0.748,0.704,��,10.2,��
2019/08/05,18:00,0.763,1.097,0.747,1.320,0.977,0.432,0.750,0.705,��,10.6,��
2019/08/05,18:10,0.761,1.094,0.747,1.323,0.978,0.432,0.750,0.705,��,10.2,��
2019/08/05,18:20,0.763,1.095,0.748,1.321,0.977,0.432,0.750,0.705,��,10.6,��
2019/08/05,18:30,0.763,1.096,0.748,1.320,0.976,0.432,0.749,0.705,��,9.5,��
2019/08/05,18:40,0.762,1.096,0.748,1.318,0.978,0.433,0.751,0.705,��,9.1,��
2019/08/05,18:50,0.764,1.098,0.747,1.318,0.977,0.431,0.748,0.705,��,8.9,��
2019/08/05,19:00,0.765,1.099,0.747,1.319,0.976,0.433,0.748,0.705,��,9.2,��
2019/08/05,19:10,0.766,1.099,0.742,1.319,0.977,0.432,0.750,0.706,��,8.8,��
2019/08/05,19:20,0.764,1.099,0.743,1.320,0.978,0.431,0.749,0.706,��,8.1,��
2019/08/05,19:30,0.763,1.097,0.743,1.320,0.979,0.433,0.749,0.706,��,8.2,��
2019/08/05,19:40,0.765,1.097,0.741,1.321,0.978,0.433,0.750,0.707,��,6.9,��
2019/08/05,19:50,0.764,1.099,0.745,1.323,0.976,0.434,0.748,0.707,��,6.6,��
2019/08/05,20:00,0.765,1.099,0.747,1.320,0.981,0.433,0.749,0.707,��,6.4,��
2019/08/05,20:10,0.765,1.098,0.748,1.319,0.978,0.433,0.749,0.706,��,6.6,��
2019/08/05,20:20,0.763,1.098,0.752,1.318,0.978,0.433,0.749,0.708,��,6.1,��
2019/08/05,20:30,0.765,1.096,0.749,1.323,0.980,0.435,0.749,0.706,��,6.7,��
2019/08/05,20:40,0.764,1.098,0.748,1.320,0.979,0.434,0.748,0.706,��,7.7,��
2019/08/05,20:50,0.764,1.096,0.749,1.322,0.978,0.434,0.748,0.706,��,7.6,��
2019/08/05,21:00,0.766,1.099,0.743,1.322,0.978,0.434,0.750,0.707,��,6.5,��
2019/08/05,21:10,0.765,1.098,0.743,1.321,0.978,0.434,0.750,0.708,��,6.4,��
2019/08/05,21:20,0.763,1.097,0.744,1.321,0.980,0.433,0.748,0.708,��,6.1,��
2019/08/05,21:30,0.766,1.097,0.744,1.323,0.978,0.432,0.749,0.707,��,6.2,��
2019/08/05,21:40,0.764,1.097,0.748,1.321,0.980,0.434,0.749,0.707,��,6.0,��
2019/08/05,21:50,0.765,1.096,0.746,1.323,0.978,0.434,0.749,0.707,��,6.2,��
2019/08/05,22:00,0.766,1.096,0.748,1.321,0.977,0.434,0.750,0.707,��,6.5,��
2019/08/05,22:10,0.767,1.095,0.751,1.321,0.977,0.434,0.748,0.708,��,5.6,��
2019/08/05,22:20,0.765,1.096,0.752,1.321,0.978,0.433,0.750,0.707,��,5.2,��
2019/08/05,22:30,0.764,1.096,0.751,1.324,0.979,0.434,0.748,0.707,��,4.9,��
2019/08/05,22:40,0.765,1.097,0.749,1.322,0.979,0.434,0.749,0.707,��,4.0,��
2019/08/05,22:50,0.765,1.096,0.750,1.322,0.977,0.434,0.751,0.708,��쐼,3.5,��
2019/08/05,23:00,0.767,1.097,0.750,1.321,0.978,0.434,0.749,0.707,��쐼,3.2,��
2019/08/05,23:10,0.766,1.099,0.749,1.325,0.977,0.434,0.748,0.707,��쐼,3.7,��
2019/08/05,23:20,0.766,1.096,0.751,1.319,0.978,0.434,0.749,0.707,��쐼,2.6,��
2019/08/05,23:30,0.766,1.097,0.750,1.321,0.977,0.434,0.749,0.707,��쐼,2.5,��
2019/08/05,23:40,0.766,1.098,0.750,1.320,0.976,0.434,0.750,0.707,��쐼,1.4,��
2019/08/05,23:50,0.765,1.095,0.748,1.320,0.977,0.434,0.749,0.708,-,CALM,��
